Weather History for KTIK - March, 2013

Change the Weather History Date:

Monday, March 11, 2013

  Actual Average Record
Temperature  
Mean Temperature 40 °F -  
Max Temperature 54 °F 56 °F 80 °F (1997)
Min Temperature 28 °F 35 °F 17 °F (1998)
Degree Days  
Heating Degree Days 24    
Moisture  
Dew Point 21 °F    
Average Humidity 51    
Maximum Humidity 79    
Minimum Humidity 23    
Precipitation  
Precipitation 0.00 in - - ()
Sea Level Pressure  
Sea Level Pressure 30.05 in    
Wind  
Wind Speed 9 mph (NW)    
Max Wind Speed 16 mph    
Max Gust Speed 23 mph    
Visibility 10 miles    
Events      
Averages and records for this station are not official NWS values.
T = Trace of Precipitation, MM = Missing Value Source: NWS Daily Summary

Daily Weather History Graph

Daily Weather History Graph

Search for Another Location

Airport or City:

Trip Planner

Search our weather history database for the weather conditions in past years. The results will help you decide how hot, cold, wet, or windy it might be!

Date:

Astronomy

Mar. 11, 2013 Rise Set
Actual Time 7:45 AM CDT 7:33 PM CDT
Civil Twilight 7:20 AM CDT 7:59 PM CDT
Nautical Twilight 6:50 AM CDT 8:28 PM CDT
Astronomical Twilight 6:21 AM CDT 8:58 PM CDT
Moon 7:20 AM CDT (3/11) 7:45 PM CDT (3/11)
Length of Visible Light 12h 39m
Length of Day
11h 48m
Waning Crescent, 0% of the Moon is Illuminated
Mar 11
Waning Crescent
Mar 11
New
Mar 19
First Quarter
Mar 27
Full
Apr 2
Last Quarter

Hourly Weather History & Observations

Time (CDT) Temp. Windchill Dew Point Humidity Pressure Visibility Wind Dir Wind Speed Gust Speed Precip Events Conditions
12:58 AM 34.9 °F 29.0 °F 27.9 °F 76% 30.09 in 10.0 mi NW 6.9 mph - N/A   Overcast
1:58 AM 34.0 °F 29.8 °F 27.5 °F 77% 30.08 in 10.0 mi WNW 4.6 mph - N/A   Overcast
2:58 AM 33.3 °F 30.2 °F 27.3 °F 79% 30.07 in 10.0 mi WNW 3.5 mph - N/A   Clear
3:58 AM 32.7 °F 23.4 °F 24.6 °F 72% 30.05 in 10.0 mi NW 12.7 mph - N/A   Clear
4:58 AM 31.1 °F 21.4 °F 23.7 °F 74% 30.05 in 10.0 mi NW 12.7 mph - N/A   Clear
5:58 AM 30.0 °F 20.0 °F 23.5 °F 77% 30.05 in 10.0 mi NW 12.7 mph - N/A   Clear
6:58 AM 29.1 °F 20.6 °F 21.9 °F 74% 30.09 in 10.0 mi WNW 9.2 mph - N/A   Clear
7:58 AM 28.4 °F 19.1 °F 20.5 °F 72% 30.09 in 10.0 mi WNW 10.4 mph - N/A   Clear
8:58 AM 29.5 °F 18.8 °F 19.6 °F 67% 30.07 in 10.0 mi NW 13.8 mph - N/A   Clear
9:58 AM 32.4 °F 21.7 °F 18.1 °F 56% 30.09 in 10.0 mi NW 16.1 mph 23.0 mph N/A   Clear
10:58 AM 35.4 °F 26.0 °F 17.4 °F 48% 30.09 in 10.0 mi WNW 15.0 mph - N/A   Clear
11:58 AM 40.1 °F 32.7 °F 15.6 °F 37% 30.07 in 10.0 mi WNW 12.7 mph - N/A   Clear
12:58 PM 43.7 °F 37.3 °F 15.1 °F 32% 30.06 in 10.0 mi NW 12.7 mph - N/A   Clear
1:58 PM 46.8 °F - 14.5 °F 27% 30.04 in 10.0 mi West 12.7 mph - N/A   Clear
2:58 PM 50.0 °F - 13.6 °F 23% 30.02 in 10.0 mi NW 12.7 mph - N/A   Clear
3:58 PM 52.5 °F - 18.0 °F 26% 30.01 in 10.0 mi WNW 6.9 mph - N/A   Clear
4:58 PM 53.6 °F - 19.8 °F 27% 30.00 in 10.0 mi WNW 9.2 mph - N/A   Clear
5:58 PM 53.6 °F - 21.2 °F 28% 30.00 in 10.0 mi WNW 5.8 mph - N/A   Clear
6:58 PM 53.1 °F - 21.9 °F 30% 30.00 in 10.0 mi West 1.2 mph - N/A   Clear
7:58 PM 50.0 °F - 22.8 °F 34% 30.01 in 10.0 mi East 3.5 mph - N/A   Clear
8:58 PM 47.3 °F - 23.2 °F 39% 30.02 in 10.0 mi ENE 4.6 mph - N/A   Clear
9:58 PM 44.6 °F 40.2 °F 24.1 °F 44% 30.02 in 10.0 mi East 8.1 mph - N/A   Clear
10:58 PM 42.3 °F 37.9 °F 24.3 °F 49% 30.03 in 10.0 mi SE 6.9 mph - N/A   Clear
11:58 PM 40.6 °F 36.7 °F 24.3 °F 52% 30.05 in 10.0 mi ESE 5.8 mph - N/A   Clear